Weather Roundup
Issued by NWS

Home | Current Version | Previous Version | Graphics & Text | Print | Product List | Glossary Off
Versions: 1 2 3 4 5 6 7 8 9 10 11 12 13 14 15 16 17 18 19 20 21 22 23 24 25 26 27 28 29 30 31 32 33 34 35 36 37 38 39 40 41 42 43 44 45 46 47 48 49 50

000
NZUS93 KARX 290710
HRRWXR

CURRENT HOURLY OBSERVATIONS ACROSS
MUCH OF THE UPPER MISSISSIPPI VALLEY
NATIONAL WEATHER SERVICE LA CROSSE WI
100 AM CST MON DEC 29 2014


...SOUTHEAST MINNESOTA...


CITY           SKY/WX    TMP DP  RH WIND       PRES   REMARKS
ROCHESTER      CLOUDY    13   9  84 N12       30.30R WCI  -1
ROCHESTER/MAYO CLOUDY    13   8  80 N5        30.33R WCI   5
WINONA         CLOUDY    14  12  92 NW5       30.36S WCI   6
AUSTIN         CLOUDY    16  10  79 NE6       30.30R WCI   7
ALBERT LEA     CLOUDY    16  12  86 N6        30.30R WCI   7
DODGE CENTER   CLOUDY    12   9  85 N10       30.30S WCI  -1
PRESTON        CLOUDY    14  11  90 N3        30.30R
OWATONNA       CLOUDY    12   5  73 N8        30.32S WCI   1
FARIBAULT      CLOUDY    12   5  73 N10       30.34F WCI  -1
$$

...ELSEWHERE IN MINNESOTA...


CITY           SKY/WX    TMP DP  RH WIND       PRES   REMARKS
MINNEAPOLIS    CLOUDY    10  -1  61 N10       30.40R WCI  -4
INTNL FALLS    CLEAR    -11 -17  75 NW9       30.40R WCI -29
DULUTH         CLEAR     -2  -9  72 NW9       30.32R WCI -18
RED WING       CLOUDY    10   1  67 CALM      30.37S
REDWOOD FALLS  CLOUDY    14   5  67 N7        30.38S WCI   4
MANKATO        CLOUDY    12   3  67 N8        30.35R WCI   1
WORTHINGTON    CLOUDY    12 -29  14 N15       30.30S WCI  -4
FAIRMONT       CLOUDY    18  12  79 N8        30.32S WCI   7
$$

...SOUTHWEST WISCONSIN...


CITY           SKY/WX    TMP DP  RH WIND       PRES   REMARKS
LA CROSSE      MOCLDY    17  12  80 NW6       30.33F WCI   9
PRAIRIE DU CHI CLOUDY    24  18  75 N3        30.31R
BOSCOBEL       CLOUDY    23  13  65 N6        30.31R WCI  16
LONE ROCK      CLOUDY    25  13  60 VRB3      30.31R
PLATTEVILLE    CLOUDY    25  22  87 CALM      30.26R
FORT MC COY    MOCLDY    15  13  90 N7        30.32F WCI   6
CAMP DOUGLAS   MOCLDY    15  15  99 N6        30.31S WCI   6
VIROQUA        FAIR      19  15  88 NE6       30.27R WCI  10
WIS DELLS      MOCLDY    19  13  79 N6        30.28S WCI  10
$$

...ELSEWHERE IN WISCONSIN...


CITY           SKY/WX    TMP DP  RH WIND       PRES   REMARKS
MILWAUKEE      MOCLDY    28  19  69 N6        30.26R WCI  22
MADISON        MOCLDY    22  14  71 N13       30.28R WCI  10
GREEN BAY      CLEAR     16   8  71 N6        30.33R WCI   7
EAU CLAIRE     PTCLDY     3  -1  83 CALM      30.35S
BLACK RVR FLS  FAIR       4   1  86 CALM      30.34R
MEDFORD        PTCLDY   N/A N/A N/A N3        30.28S
WAUSAU         PTCLDY     3   0  87 NW5       30.29R WCI  -6
WIS RAPIDS     PTCLDY    13   7  77 N7        30.32S WCI   3
MARSHFIELD     PTCLDY     8   2  76 N5        30.30R WCI   0
RICE LAKE      PTCLDY     0  -5  77 NW3       30.37R
$$

...NORTHEAST IOWA...


CITY           SKY/WX    TMP DP  RH WIND       PRES   REMARKS
DECORAH        CLOUDY    19  14  79 NE6       30.28R WCI  11
MASON CITY     CLOUDY    18  13  80 NE8       30.31R WCI   8
CHARLES CITY   CLOUDY    19  16  86 NE9       30.30R WCI   9
OELWEIN        CLOUDY    23  19  86 NE9       30.27S WCI  13
$$

...ELSEWHERE IN IOWA...


CITY           SKY/WX    TMP DP  RH WIND       PRES   REMARKS
DES MOINES     CLOUDY    29  23  78 NE9       30.24R WCI  20
IOWA CITY      CLOUDY    28  19  69 NE5       30.27S WCI  23
FORT DODGE     CLOUDY    19  14  79 NE8       30.28S WCI   9
$$

...NORTHERN ILLINOIS...


CITY           SKY/WX    TMP DP  RH WIND       PRES   REMARKS
CHICAGO-OHARE  MOCLDY    26  18  71 N5        30.24S WCI  20
CHICAGO-MIDWAY PTCLDY    27  18  69 W3        30.25S
MOLINE         MOCLDY    22  19  89 CALM      30.25F
ROCKFORD       CLOUDY    24  19  81 CALM      30.28R
PEORIA         CLEAR     23  17  78 CALM      30.26S
$$

NOTE: "FAIR" INDICATES FEW OR NO CLOUDS BELOW 12,000 FEET WITH NO
SIGNIFICANT WEATHER AND/OR OBSTRUCTIONS TO VISIBILITY. WIND
SPEEDS ARE IN MILES-PER-HOUR.



USA.gov is the U.S. government's official web portal to all federal, state and local government web resources and services.